Flag for Canada Weather past 2 weeks in Kamloops, British Columbia, Canada

Now
27 °F

Clear.


Feels Like: 16 °F
Forecast: 18 / 36 °F
Wind: 13 mph from Northwest

Location: Kamloops

Current Time: Mar 3, 2015 at 4:01:37 AM

Latest Report: Mar 3, 2015 at 3:00 AM


Visibility: 40 mi

Pressure: 30.39 "Hg

Humidity: 36%

Dew point: 3 °F

Location of KamloopsLocation

Historic Weather in Kamloops — Graph

°F

Kamloops temperature yesterday

Maximum temperature yesterday: 43 °F (at 2:00 PM)
Minimum temperature yesterday: 30 °F (at 9:00 PM)
Average temperature yesterday: 39 °F

Past Weeks' High & Low Weather Summary

 TemperatureHumidityPressure
High50 °F (Feb 20, 1:00 PM)100% (Feb 16, 9:00 AM)30.63 "Hg (Feb 16, 9:00 AM)
Low25 °F (Feb 17, 4:53 AM)25% (Feb 21, 4:00 PM)29.98 "Hg (Feb 27, 1:00 AM)
Average36 °F64%30.31 "Hg
* Reported Feb 16 3:00 AM — Mar 3 3:00 AM, Kamloops, Weather by CustomWeather, © 2015

Note: Actual official high and low records may vary slightly from our data, if they occured in-between our weather recording intervals... More about our weather records

Advertising

Kamloops weather history for previous 24 hours

 ConditionsComfort  
Time TempWeatherWind HumidityBarometerVisibility
3:00 AM
Tue, Mar 3
27 °FClear.13 mph36%30.39 "Hg40 mi
2:00 AM27 °FClear.14 mph36%30.37 "Hg40 mi
1:00 AM28 °FClear.14 mph37%30.36 "Hg40 mi
12:00 AM27 °FClear.12 mph43%30.34 "Hg40 mi
11:00 PM
Mon, Mar 2
34 °FClear.7 mph25%30.33 "Hg40 mi
10:00 PM34 °FClear.7 mph25%30.31 "Hg40 mi
9:00 PM30 °FClear.3 mph37%30.29 "Hg40 mi
8:00 PM36 °FClear.7 mph25%30.26 "Hg40 mi
7:00 PM37 °FClear.16 mph28%30.23 "Hg40 mi
6:00 PM39 °FPassing clouds.17 mph28%30.21 "Hg40 mi
5:00 PM41 °FScattered clouds.21 mph36%30.20 "Hg40 mi
4:00 PM43 °FPartly sunny.2 mph34%30.19 "Hg40 mi
3:00 PM41 °FPartly sunny.6 mph42%30.17 "Hg40 mi
2:00 PM43 °FPartly sunny.18 mph36%30.15 "Hg40 mi
1:00 PM41 °FPartly sunny.12 mph39%30.17 "Hg40 mi
12:00 PM39 °FBroken clouds.16 mph48%30.16 "Hg40 mi
11:00 AM41 °FBroken clouds.20 mph42%30.15 "Hg40 mi
10:00 AM41 °FBroken clouds.15 mph45%30.16 "Hg40 mi
9:00 AM41 °FScattered clouds.21 mph42%30.14 "Hg40 mi
8:00 AM39 °FBroken clouds.21 mph48%30.14 "Hg40 mi
7:00 AM39 °FBroken clouds.14 mph48%30.12 "Hg40 mi
6:00 AM39 °FPartly cloudy.13 mph48%30.11 "Hg40 mi
5:00 AM39 °FMostly cloudy.15 mph48%30.10 "Hg40 mi
4:00 AM39 °FOvercast.10 mph52%30.09 "Hg40 mi
Weather by CustomWeather, © 2015

See weather overviewHow to use our weather pages